sat.trackr.live / text

‹ back to catalog

YUNYAO-1 47

NORAD 63348 · 2025-059E

PAYLOAD ACTIVE UNKNOWN

§ Identity

Operator
Country
PRC
Launch date
2025-03-21
Launch site
JSC
Launch vehicle
Mass (kg)
RCS (m²)

External: N2YO · Heavens-Above · Gunter

§ Orbital elements

Epoch: 2026-05-25T04:21:26.237088Z

Period
95.30 min
Inclination
97.6091°
Eccentricity
0.0014803
Mean motion
15.11024394 rev/d
Perigee alt
522.8 km
Apogee alt
543.3 km
Semi-major
6,911.2 km
B*
2.0347e-4
RAAN
326.7080°
Arg perigee
233.8780°
Mean anomaly
126.1080°
Rev number
6,482

§ Raw data

YUNYAO-1 471 63348U 25059E   26145.18155367  .00003342  00000+0  20347-3 0  99992 63348  97.6091 326.7080 0014803 233.8780 126.1080 15.11024394 64829

JSON: /api/v1/satellites/63348 · /tle

For live sub-satellite position, see the globe view (requires WebGL).

§ Visibility from observer

Set your observer location to see the next 7 days of passes ≥ 10°. The values pass through the URL so the page stays shareable.

No JS? Fill the form by hand. The geolocation button needs JavaScript.